Charlottetown, Prince Edward Island

9:22 AM ADT on June 29, 2017 (GMT -0300)
Charlottetown

Weather History for CYYG - January, 2014

Change the Weather History Date:

Monday, January 20, 2014

  Actual Average Record
Temperature  
Mean Temperature 27 °F -  
Max Temperature 33 °F 26 °F 42 °F (2013)
Min Temperature 19 °F 10 °F 1 °F (2000)
Degree Days  
Heating Degree Days 38    
Moisture  
Dew Point 25 °F    
Average Humidity 85    
Maximum Humidity 100    
Minimum Humidity 69    
Precipitation  
Precipitation 0.08 in 0.13 in - ()
Sea Level Pressure  
Sea Level Pressure 29.44 in    
Wind  
Wind Speed 12 mph ()    
Max Wind Speed 21 mph    
Max Gust Speed 32 mph    
Visibility 8.7 miles    
Events Snow    
Averages and records for this station are not official NWS values.
T = Trace of Precipitation, MM = Missing Value Source: Averaged Metar Reports

Daily Weather History Graph

Daily Weather History Graph

Search for Another Location

Airport or City:

Trip Planner

Search our weather history database for the weather conditions in past years. The results will help you decide how hot, cold, wet, or windy it might be!

Date:

Astronomy

Jan. 20, 2014 Rise Set
Actual Time 7:47 AM AST 4:59 PM AST
Civil Twilight 7:14 AM AST 5:32 PM AST
Nautical Twilight 6:37 AM AST 6:09 PM AST
Astronomical Twilight 6:02 AM AST 6:45 PM AST
Moon 9:48 PM AST (1/20) 9:28 AM AST (1/20)
Length of Visible Light 10h 18m
Length of Day
9h 11m
Waning Gibbous, 83% of the Moon is Illuminated
Jan 20
Waning Gibbous
Jan 24
Last Quarter
Jan 30
New
Feb 6
First Quarter
Feb 14
Full

Hourly Weather History & Observations

Time (AST) Temp. Windchill Dew Point Humidity Pressure Visibility Wind Dir Wind Speed Gust Speed Precip Events Conditions
12:00 AM 32.0 °F 20.5 °F 30.2 °F 93% 29.29 in 10.0 mi SSW 18.4 mph 26.5 mph N/A Snow Light Snow Showers
12:20 AM 30.2 °F 19.8 °F 28.4 °F 93% 29.29 in 15.0 mi SW 13.8 mph 21.9 mph N/A   Mostly Cloudy
1:00 AM 32.0 °F 20.5 °F 26.6 °F 80% 29.29 in 15.0 mi SW 18.4 mph 26.5 mph N/A   Mostly Cloudy
1:14 AM 30.2 °F 18.9 °F 26.6 °F 86% 29.30 in 12.0 mi SW 16.1 mph 27.6 mph N/A Snow Light Snow Showers
2:00 AM 30 °F - 25 °F 75% 29.30 in 12 mi SW 16.1 mph - - Snow Light Snow Showers
2:00 AM 30.2 °F 18.1 °F 24.8 °F 80% 29.30 in 12.0 mi WSW 18.4 mph 25.3 mph N/A Snow Light Snow Showers
2:25 AM 30.2 °F 17.4 °F 24.8 °F 80% 29.32 in 12.0 mi SW 20.7 mph 32.2 mph N/A Snow Low Drifting Snow
3:00 AM 30.2 °F 17.8 °F 24.8 °F 80% 29.34 in 12.0 mi SW 19.6 mph 25.3 mph N/A Snow Low Drifting Snow
4:00 AM 28.4 °F 18.0 °F 24.8 °F 86% 29.38 in 12.0 mi WSW 12.7 mph 20.7 mph N/A Snow Low Drifting Snow
5:00 AM 26.6 °F 16.8 °F 23.0 °F 86% 29.40 in 15.0 mi SW 10.4 mph - N/A   Partly Cloudy
6:00 AM 24.8 °F 14.0 °F 21.2 °F 86% 29.43 in 15.0 mi SW 11.5 mph - N/A   Partly Cloudy
7:00 AM 24.8 °F 14.0 °F 21.2 °F 86% 29.44 in 15.0 mi SSW 11.5 mph 19.6 mph N/A   Mostly Cloudy
8:00 AM 27 °F - 22 °F 74% 29.45 in 15 mi SW 11.5 mph - -   Partly Cloudy
8:00 AM 26.6 °F 16.2 °F 21.2 °F 80% 29.45 in 15.0 mi SW 11.5 mph 17.3 mph N/A   Mostly Cloudy
9:00 AM 28.4 °F 16.6 °F 23.0 °F 80% 29.45 in 15.0 mi SSW 16.1 mph 23.0 mph N/A   Mostly Cloudy
10:00 AM 28.4 °F 18.0 °F 23.0 °F 80% 29.47 in 15.0 mi SSW 12.7 mph 19.6 mph N/A   Mostly Cloudy
11:00 AM 30.2 °F 19.3 °F 24.8 °F 80% 29.48 in 15.0 mi SSW 15.0 mph 23.0 mph N/A   Mostly Cloudy
12:00 PM 32.0 °F 22.1 °F 24.8 °F 75% 29.47 in 15.0 mi SW 13.8 mph 24.2 mph N/A   Mostly Cloudy
1:00 PM 32.0 °F 24.2 °F 24.8 °F 75% 29.45 in 15.0 mi SW 9.2 mph - N/A   Mostly Cloudy
2:00 PM 33 °F - 27 °F 69% 29.45 in 15 mi SSW 11.5 mph - -   Overcast
2:00 PM 33.8 °F 25.3 °F 26.6 °F 75% 29.44 in 15.0 mi SSW 11.5 mph - N/A   Overcast
2:36 PM 33.8 °F 26.4 °F 26.6 °F 75% 29.45 in 15.0 mi SSW 9.2 mph - N/A Snow Light Snow
2:50 PM 33.8 °F 23.2 °F 26.6 °F 75% 29.45 in 3.0 mi SW 17.3 mph 24.2 mph N/A Snow Light Snow
3:00 PM 32.0 °F 21.2 °F 28.4 °F 87% 29.46 in 3.0 mi SW 16.1 mph - N/A Snow Light Snow
3:45 PM 32.0 °F 23.0 °F 28.4 °F 87% 29.47 in 2.5 mi SSW 11.5 mph - N/A Snow Light Snow
4:00 PM 32.0 °F 24.2 °F 28.4 °F 87% 29.47 in 2.5 mi SW 9.2 mph - N/A Snow Light Snow
4:06 PM 32.0 °F 23.6 °F 28.4 °F 87% 29.47 in 1.5 mi SW 10.4 mph - N/A Snow Light Snow
4:15 PM 30.2 °F 21.9 °F 30.2 °F 100% 29.47 in 2.0 mi SW 9.2 mph - N/A Snow Light Snow
4:28 PM 30.2 °F 22.6 °F 28.4 °F 93% 29.46 in 0.8 mi NW 8.1 mph - N/A Snow Light Snow
4:43 PM 28.4 °F 21.2 °F 28.4 °F 100% 29.48 in 2.0 mi NW 6.9 mph - N/A Snow Light Snow
5:00 PM 28.4 °F 21.2 °F 26.6 °F 93% 29.49 in 2.5 mi WNW 6.9 mph - N/A Snow Light Snow
5:10 PM 28.4 °F 22.2 °F 26.6 °F 93% 29.48 in 4.0 mi West 5.8 mph - N/A Snow Light Snow
6:00 PM 26.6 °F 18.2 °F 26.6 °F 100% 29.47 in 2.5 mi North 8.1 mph - N/A Snow Light Snow
6:49 PM 26.6 °F 18.2 °F 24.8 °F 93% 29.49 in 2.0 mi NNW 8.1 mph - N/A Snow Light Snow
7:00 PM 26.6 °F 16.8 °F 23.0 °F 86% 29.49 in 2.0 mi NW 10.4 mph - N/A Snow Light Snow
8:00 PM 24 °F - 21 °F 85% 29.51 in 1 mi NW 10.4 mph - - Snow Light Snow
8:00 PM 23.0 °F 13.9 °F 21.2 °F 93% 29.51 in 1.5 mi NW 8.1 mph - N/A Snow Light Snow
8:39 PM 23.0 °F 13.9 °F 21.2 °F 93% 29.52 in 3.0 mi NNW 8.1 mph - N/A Snow Light Snow
9:00 PM 23.0 °F 13.9 °F 21.2 °F 93% 29.51 in 3.0 mi NNW 8.1 mph - N/A Snow Light Snow
9:34 PM 23.0 °F 13.9 °F 19.4 °F 86% 29.54 in 6.0 mi NW 8.1 mph - N/A Snow Light Snow
10:00 PM 21.2 °F 10.1 °F 17.6 °F 86% 29.56 in 6.0 mi WNW 10.4 mph - N/A Snow Light Snow
11:00 PM 19.4 °F 7.9 °F 14.0 °F 80% 29.57 in 6.0 mi NW 10.4 mph - N/A Snow Light Snow